TimeEST,TemperatureF,Dew PointF,Humidity,Sea Level PressureIn,VisibilityMPH,Wind Direction,Wind SpeedMPH,Gust SpeedMPH,PrecipitationIn,Events,Conditions,WindDirDegrees,DateUTC
12:35 AM,58.6,58.6,100,30.03,7.0,South,3.5,-,N/A,,Clear,180,2013-01-14 05:35:00
12:55 AM,59.5,59.5,100,30.03,7.0,South,3.5,-,N/A,,Clear,180,2013-01-14 05:55:00
1:15 AM,60.6,60.6,100,30.03,10.0,South,4.6,-,N/A,,Clear,190,2013-01-14 06:15:00
1:35 AM,61.2,60.6,98,30.04,10.0,SSW,6.9,-,N/A,,Clear,200,2013-01-14 06:35:00
1:55 AM,61.9,61.0,97,30.04,10.0,SSW,8.1,-,N/A,,Clear,210,2013-01-14 06:55:00
2:15 AM,63.0,61.3,94,30.05,10.0,SSW,9.2,-,N/A,,Clear,210,2013-01-14 07:15:00
2:35 AM,63.9,60.8,90,30.05,10.0,SW,10.4,17.3,N/A,,Clear,220,2013-01-14 07:35:00
2:55 AM,64.6,60.6,87,30.05,10.0,SSW,9.2,-,N/A,,Clear,210,2013-01-14 07:55:00
3:15 AM,64.6,60.3,86,30.04,10.0,SSW,10.4,-,N/A,,Clear,210,2013-01-14 08:15:00
3:35 AM,64.6,60.3,86,30.03,10.0,SSW,8.1,-,N/A,,Clear,210,2013-01-14 08:35:00
3:55 AM,64.2,60.1,86,30.01,10.0,South,4.6,-,N/A,,Clear,170,2013-01-14 08:55:00
4:35 AM,64.0,59.9,86,30.02,10.0,SW,8.1,-,N/A,,Mostly Cloudy,220,2013-01-14 09:35:00
5:15 AM,63.9,59.9,87,30.01,10.0,SSW,9.2,-,N/A,,Overcast,200,2013-01-14 10:15:00
5:35 AM,63.7,59.9,87,30.02,10.0,SSW,9.2,-,N/A,Rain,Light Rain,210,2013-01-14 10:35:00
5:55 AM,63.7,59.9,87,30.05,10.0,WSW,4.6,-,N/A,,Light Drizzle,240,2013-01-14 10:55:00
6:15 AM,63.5,60.1,89,30.05,10.0,South,4.6,-,N/A,Rain,Light Rain,180,2013-01-14 11:15:00
6:35 AM,63.0,60.4,91,30.06,10.0,Calm,Calm,-,N/A,Rain,Light Rain,0,2013-01-14 11:35:00
6:55 AM,61.5,60.1,95,30.07,10.0,SSW,3.5,-,N/A,,Mostly Cloudy,200,2013-01-14 11:55:00
7:15 AM,62.1,60.4,94,30.09,10.0,Calm,Calm,-,N/A,,Scattered Clouds,0,2013-01-14 12:15:00
7:35 AM,61.5,59.9,94,30.09,10.0,South,3.5,-,N/A,Rain,Light Rain,170,2013-01-14 12:35:00
7:55 AM,61.7,60.1,94,30.10,7.0,Calm,Calm,-,N/A,Rain,Rain,0,2013-01-14 12:55:00
8:15 AM,61.9,60.3,94,30.11,10.0,Calm,Calm,-,N/A,,Mostly Cloudy,0,2013-01-14 13:15:00
8:55 AM,63.0,61.0,93,30.13,10.0,Calm,Calm,-,N/A,,Mostly Cloudy,0,2013-01-14 13:55:00
9:15 AM,63.0,61.5,95,30.15,10.0,NW,5.8,-,N/A,Rain,Light Rain,320,2013-01-14 14:15:00
9:35 AM,63.0,61.0,93,30.16,7.0,NNW,4.6,-,0.01,Rain,Rain,330,2013-01-14 14:35:00
9:55 AM,59.2,55.4,87,30.17,10.0,North,8.1,-,0.01,Rain,Light Rain,360,2013-01-14 14:55:00
10:15 AM,59.0,54.3,84,30.19,10.0,North,8.1,-,N/A,,Overcast,360,2013-01-14 15:15:00
10:35 AM,58.5,52.9,82,30.18,10.0,North,10.4,16.1,N/A,,Overcast,10,2013-01-14 15:35:00
10:55 AM,58.1,51.8,80,30.19,10.0,North,6.9,-,N/A,,Overcast,350,2013-01-14 15:55:00
11:15 AM,57.9,52.2,81,30.18,10.0,North,4.6,-,N/A,,Overcast,360,2013-01-14 16:15:00
11:35 AM,57.9,52.7,83,30.18,10.0,NNE,3.5,-,N/A,,Overcast,20,2013-01-14 16:35:00
11:55 AM,57.6,50.4,77,30.17,10.0,NNE,5.8,-,N/A,,Overcast,20,2013-01-14 16:55:00
12:15 PM,57.4,47.7,70,30.17,10.0,North,9.2,-,N/A,,Overcast,360,2013-01-14 17:15:00
12:35 PM,57.0,46.4,68,30.16,10.0,NNE,5.8,-,N/A,,Overcast,20,2013-01-14 17:35:00
12:55 PM,56.5,45.3,66,30.16,10.0,North,11.5,18.4,N/A,,Overcast,10,2013-01-14 17:55:00
1:15 PM,56.1,45.1,67,30.18,10.0,North,9.2,-,N/A,,Overcast,350,2013-01-14 18:15:00
1:35 PM,56.3,45.0,66,30.18,10.0,North,5.8,-,N/A,,Overcast,10,2013-01-14 18:35:00
1:55 PM,55.8,45.1,67,30.17,10.0,NNE,8.1,-,N/A,,Overcast,20,2013-01-14 18:55:00
2:15 PM,54.9,43.3,65,30.20,10.0,North,8.1,17.3,N/A,,Overcast,360,2013-01-14 19:15:00
2:35 PM,54.5,43.0,65,30.20,10.0,North,12.7,19.6,N/A,,Overcast,10,2013-01-14 19:35:00
2:55 PM,53.6,42.1,65,30.20,10.0,NNE,6.9,-,N/A,,Overcast,20,2013-01-14 19:55:00
3:15 PM,53.2,41.7,65,30.23,10.0,North,8.1,-,N/A,,Overcast,360,2013-01-14 20:15:00
3:35 PM,53.1,41.9,66,30.24,10.0,North,6.9,-,N/A,,Overcast,360,2013-01-14 20:35:00
3:55 PM,52.0,42.4,70,30.24,10.0,North,8.1,19.6,N/A,,Overcast,360,2013-01-14 20:55:00
4:15 PM,49.6,43.0,78,30.23,7.0,North,9.2,18.4,N/A,,Light Drizzle,360,2013-01-14 21:15:00
4:35 PM,48.9,42.6,79,30.23,10.0,NNE,5.8,17.3,N/A,,Overcast,20,2013-01-14 21:35:00
4:55 PM,49.8,41.2,72,30.25,10.0,Calm,Calm,-,N/A,,Overcast,0,2013-01-14 21:55:00
5:15 PM,50.5,40.6,69,30.26,10.0,Calm,Calm,-,N/A,,Overcast,0,2013-01-14 22:15:00
5:35 PM,50.5,39.7,66,30.26,10.0,Calm,Calm,-,N/A,,Overcast,0,2013-01-14 22:35:00
5:55 PM,50.5,39.6,66,30.23,10.0,Calm,Calm,-,N/A,,Overcast,0,2013-01-14 22:55:00
6:15 PM,50.2,41.2,71,30.25,10.0,NW,4.6,-,N/A,,Overcast,320,2013-01-14 23:15:00
6:35 PM,50.2,40.3,69,30.27,10.0,NNW,5.8,-,N/A,,Overcast,330,2013-01-14 23:35:00
6:55 PM,50.5,40.1,67,30.28,10.0,NNW,8.1,-,N/A,,Overcast,340,2013-01-14 23:55:00
7:15 PM,50.5,39.9,67,30.29,10.0,NNW,8.1,-,N/A,Rain,Light Rain,340,2013-01-15 00:15:00
7:35 PM,49.3,39.9,70,30.30,10.0,NNW,11.5,16.1,N/A,Rain,Light Rain,340,2013-01-15 00:35:00
7:55 PM,48.7,39.6,71,30.31,10.0,NNW,9.2,-,N/A,Rain,Light Rain,340,2013-01-15 00:55:00
8:15 PM,47.3,40.5,77,30.31,10.0,NNW,11.5,-,N/A,Rain,Rain,330,2013-01-15 01:15:00
8:35 PM,46.0,41.0,83,30.31,10.0,NNW,11.5,16.1,N/A,Rain,Light Rain,340,2013-01-15 01:35:00
8:55 PM,45.5,41.0,84,30.31,10.0,North,11.5,19.6,0.01,Rain,Light Rain,350,2013-01-15 01:55:00
9:15 PM,44.8,40.6,85,30.31,10.0,North,10.4,-,N/A,Rain,Light Rain,360,2013-01-15 02:15:00
9:35 PM,44.6,40.1,84,30.30,10.0,North,8.1,-,N/A,,Overcast,350,2013-01-15 02:35:00
9:55 PM,44.6,39.9,84,30.33,10.0,North,9.2,16.1,N/A,,Light Drizzle,350,2013-01-15 02:55:00
10:15 PM,44.2,39.6,84,30.33,10.0,North,13.8,17.3,N/A,Rain,Light Rain,360,2013-01-15 03:15:00
10:35 PM,43.5,40.3,88,30.32,10.0,NNW,13.8,19.6,N/A,Rain,Light Rain,340,2013-01-15 03:35:00
10:55 PM,42.4,38.5,86,30.33,10.0,North,10.4,-,N/A,,Light Drizzle,350,2013-01-15 03:55:00
11:15 PM,42.1,38.1,86,30.34,10.0,North,9.2,19.6,N/A,Rain,Light Rain,350,2013-01-15 04:15:00
11:35 PM,41.7,37.6,85,30.33,10.0,North,9.2,-,0.01,Rain,Light Rain,360,2013-01-15 04:35:00
11:55 PM,41.0,37.4,87,30.35,10.0,North,9.2,-,0.01,Rain,Rain,350,2013-01-15 04:55:00